Greeley, CO

4:16 PM MDT on September 26, 2017 (GMT -0600)
Greeley-Weld County

Weather History for KGXY - December, 2011

Change the Weather History Date:

Wednesday, December 7, 2011

  Actual Average Record
Temperature  
Mean Temperature 19 °F -  
Max Temperature 33 °F - 65 °F (1981)
Min Temperature 5 °F - -13 °F (2013)
Degree Days  
Heating Degree Days 46    
Month to date heating degree days  
Cooling Degree Days 0    
Month to date cooling degree days  
Moisture  
Dew Point 10 °F    
Average Humidity 72    
Maximum Humidity 79    
Minimum Humidity 56    
Precipitation  
Precipitation 0.00 in - 19.58 in (2004)
Sea Level Pressure  
Sea Level Pressure 30.11 in    
Wind  
Wind Speed 3 mph (NW)    
Max Wind Speed 8 mph    
Max Gust Speed -    
Visibility 10 miles    
Events      
T = Trace of Precipitation, MM = Missing Value Source: NWS Daily Summary

Daily Weather History Graph

Daily Weather History Graph

Search for Another Location

Airport or City:

Trip Planner

Search our weather history database for the weather conditions in past years. The results will help you decide how hot, cold, wet, or windy it might be!

Date:

Astronomy

Dec. 07, 2011 Rise Set
Actual Time 7:07 AM MST 4:31 PM MST
Civil Twilight 6:37 AM MST 5:02 PM MST
Nautical Twilight 6:03 AM MST 5:36 PM MST
Astronomical Twilight 5:30 AM MST 6:09 PM MST
Moon 2:34 PM MST (12/7) 4:25 AM MST (12/7)
Length of Visible Light 10h 24m
Length of Day
9h 23m
Waxing Gibbous, 93% of the Moon is Illuminated
Dec 7
Waxing Gibbous
Dec 10
Full
Dec 17
Last Quarter
Dec 24
New
Dec 31
First Quarter

Hourly Weather History & Observations

Time (MST) Temp. Windchill Dew Point Humidity Pressure Visibility Wind Dir Wind Speed Gust Speed Precip Events Conditions
12:15 AM 8.6 °F - 3.2 °F 79% 30.10 in 10.0 mi Calm Calm - N/A   Clear
12:35 AM 8.6 °F - 3.2 °F 79% 30.09 in 10.0 mi Calm Calm - N/A   Clear
1:15 AM 6.8 °F - 1.4 °F 79% 30.09 in 10.0 mi Calm Calm - N/A   Clear
1:35 AM 6.8 °F - 1.4 °F 79% 30.10 in 10.0 mi Calm Calm - N/A   Clear
2:15 AM 6.8 °F - 1.4 °F 79% 30.10 in 10.0 mi Calm Calm - N/A   Clear
2:35 AM 8.6 °F 0.1 °F 3.2 °F 79% 30.10 in 10.0 mi SW 4.6 mph - N/A   Clear
2:55 AM 8.6 °F - 3.2 °F 79% 30.10 in 10.0 mi Calm Calm - N/A   Clear
3:15 AM 5.0 °F -4.1 °F -0.4 °F 78% 30.10 in 10.0 mi NE 4.6 mph - N/A   Clear
3:55 AM 6.8 °F -3.5 °F 1.4 °F 79% 30.11 in 10.0 mi North 5.8 mph - N/A   Clear
4:15 AM 6.8 °F - 1.4 °F 79% 30.11 in 10.0 mi Calm Calm - N/A   Clear
4:35 AM 6.8 °F - 1.4 °F 79% 30.11 in 10.0 mi Calm Calm - N/A   Clear
5:35 AM 6.8 °F -0.1 °F 1.4 °F 79% 30.13 in 10.0 mi SSW 3.5 mph - N/A   Clear
6:35 AM 6.8 °F -3.5 °F -0.4 °F 72% 30.14 in 10.0 mi West 5.8 mph - N/A   Clear
6:55 AM 6.8 °F -0.1 °F -0.4 °F 72% 30.13 in 10.0 mi WSW 3.5 mph - N/A   Clear
7:15 AM 6.8 °F -4.8 °F 1.4 °F 79% 30.15 in 9.0 mi NW 6.9 mph - N/A   Clear
7:55 AM 8.6 °F 0.1 °F 3.2 °F 79% 30.16 in 10.0 mi NNW 4.6 mph - N/A   Clear
8:55 AM 15.8 °F 10.2 °F 8.6 °F 73% 30.19 in 10.0 mi West 3.5 mph - N/A   Clear
9:15 AM 17.6 °F 12.3 °F 10.4 °F 73% 30.18 in 10.0 mi West 3.5 mph - N/A   Clear
9:55 AM 21.2 °F 16.4 °F 14.0 °F 74% 30.19 in 10.0 mi WNW 3.5 mph - N/A   Clear
10:15 AM 26.6 °F - 15.8 °F 64% 30.19 in 10.0 mi Calm Calm - N/A   Clear
10:35 AM 26.6 °F 22.6 °F 15.8 °F 64% 30.18 in 10.0 mi South 3.5 mph - N/A   Clear
10:55 AM 26.6 °F 20.0 °F 15.8 °F 64% 30.18 in 10.0 mi South 5.8 mph - N/A   Clear
11:35 AM 28.4 °F 24.6 °F 15.8 °F 59% 30.16 in 10.0 mi SSW 3.5 mph - N/A   Clear
11:55 AM 28.4 °F 21.2 °F 17.6 °F 64% 30.14 in 10.0 mi South 6.9 mph - N/A   Clear
12:15 PM 28.4 °F 22.2 °F 17.6 °F 64% 30.14 in 10.0 mi SSE 5.8 mph - N/A   Clear
12:36 PM 30.2 °F 25.4 °F 19.4 °F 64% 30.12 in 10.0 mi South 4.6 mph - N/A   Clear
12:55 PM 30.2 °F 24.3 °F 19.4 °F 64% 30.11 in 10.0 mi South 5.8 mph - N/A   Clear
2:55 PM 33.8 °F 28.6 °F 19.4 °F 56% 30.09 in 10.0 mi South 5.8 mph - N/A   Clear
3:35 PM 33.8 °F 29.6 °F 19.4 °F 56% 30.09 in 10.0 mi South 4.6 mph - N/A   Clear
3:55 PM 33.8 °F 30.8 °F 19.4 °F 56% 30.08 in 10.0 mi SSW 3.5 mph - N/A   Clear
4:15 PM 30.2 °F - 19.4 °F 64% 30.08 in 10.0 mi Calm Calm - N/A   Clear
4:35 PM 24.8 °F - 15.8 °F 69% 30.08 in 10.0 mi Calm Calm - N/A   Clear
5:15 PM 24.8 °F 20.5 °F 17.6 °F 74% 30.08 in 10.0 mi NE 3.5 mph - N/A   Clear
5:55 PM 19.4 °F 11.5 °F 12.2 °F 74% 30.09 in 10.0 mi NNE 5.8 mph - N/A   Clear
6:35 PM 19.4 °F 14.3 °F 12.2 °F 74% 30.09 in 10.0 mi NNE 3.5 mph - N/A   Clear
6:55 PM 17.6 °F 9.3 °F 12.2 °F 79% 30.09 in 10.0 mi NNE 5.8 mph - N/A   Clear
7:35 PM 17.6 °F 7.3 °F 10.4 °F 73% 30.09 in 10.0 mi North 8.1 mph - N/A   Clear
7:55 PM 17.6 °F 7.3 °F 10.4 °F 73% 30.09 in 10.0 mi North 8.1 mph - N/A   Clear
8:15 PM 17.6 °F 8.2 °F 10.4 °F 73% 30.09 in 10.0 mi NNW 6.9 mph - N/A   Clear
8:35 PM 15.8 °F 7.2 °F 10.4 °F 79% 30.08 in 10.0 mi NNW 5.8 mph - N/A   Clear
8:55 PM 15.8 °F 10.2 °F 8.6 °F 73% 30.08 in 10.0 mi North 3.5 mph - N/A   Clear
9:15 PM 17.6 °F 9.3 °F 10.4 °F 73% 30.08 in 10.0 mi North 5.8 mph - N/A   Clear
9:55 PM 15.8 °F - 10.4 °F 79% 30.09 in 10.0 mi Calm Calm - N/A   Clear
10:55 PM 15.8 °F 7.2 °F 10.4 °F 79% 30.07 in 10.0 mi NNW 5.8 mph - N/A   Clear
11:35 PM 17.6 °F 10.7 °F 12.2 °F 79% 30.08 in 10.0 mi North 4.6 mph - N/A   Clear
11:55 PM 17.6 °F 10.7 °F 10.4 °F 73% 30.08 in 10.0 mi NNW 4.6 mph - N/A   Clear